FW7729 Weather Reports


Display with metric or nautical units.
time (UTC)temp
F
wind
direction
speed
MPH
gust
MPH
rain 1hr
in
rain 24hr
in
rain mn
in
humidity
%
barometer
mb
20260901061653 74 80 0.0 0.0 0.00 0.00 0.00 10 1016.9
20260901060549 74 80 0.0 0.0 0.00 0.00 0.00 10 1016.7
20260901060015 74 80 0.0 0.0 0.00 0.00 0.00 10 1016.8
20260901055441 74 80 0.0 0.0 0.00 0.00 0.00 10 1016.7
20260901054337 74 80 0.0 0.0 0.00 0.00 0.00 10 1017.0
20260901053803 74 80 0.0 0.0 0.00 0.00 0.00 10 1017.1
20260901053229 74 80 0.0 0.0 0.00 0.00 0.00 10 1017.2
20260901051025 74 80 0.0 0.0 0.00 0.00 0.00 10 1017.3
20260901050451 74 80 0.0 0.0 0.00 0.00 0.00 10 1017.3
20260901045917 74 80 0.0 0.0 0.00 0.00 0.00 10 1017.4
20260901045343 74 80 0.0 0.0 0.00 0.00 0.00 10 1017.5
20260901044809 74 80 0.0 0.0 0.00 0.00 0.00 10 1017.6
20260901044235 74 80 0.0 0.0 0.00 0.00 0.00 10 1017.6
20260901043131 74 80 0.0 0.0 0.00 0.00 0.00 10 1017.7
20260901042556 74 80 0.0 0.0 0.00 0.00 0.00 10 1017.7
20260901042023 74 80 0.0 0.0 0.00 0.00 0.00 10 1017.8
20260901041448 74 80 0.0 0.0 0.00 0.00 0.00 10 1017.7
20260901040915 74 80 0.0 0.0 0.00 0.00 0.00 10 1017.7
20260901035810 74 80 0.0 0.0 0.00 0.00 0.00 10 1017.8
20260901035236 74 80 0.0 0.0 0.00 0.00 0.00 10 1017.7
20260901034703 74 80 0.0 0.0 0.00 0.00 0.00 10 1017.8
20260901034129 74 80 0.0 0.0 0.00 0.00 0.00 10 1017.7
20260901033024 74 80 0.0 0.0 0.00 0.00 0.00 10 1017.6
20260901032450 74 80 0.0 0.0 0.00 0.00 0.00 10 1017.7
20260901031916 74 80 0.0 0.0 0.00 0.00 0.00 10 1017.8
20260901030812 75 80 0.0 0.0 0.00 0.00 0.00 10 1017.7
20260901030238 75 80 0.0 0.0 0.00 0.00 0.00 10 1017.8
20260901024604 75 80 0.0 0.0 0.00 0.00 0.00 10 1017.8
20260901024030 75 80 0.0 0.0 0.00 0.00 0.00 10 1017.8
20260901023456 75 79 0.0 0.0 0.00 0.00 0.00 10 1017.8
20260901022352 75 80 0.0 0.0 0.00 0.00 0.00 10 1017.8
20260901021248 75 80 0.0 0.0 0.00 0.00 0.00 10 1017.7
20260901015614 75 80 0.0 0.0 0.00 0.00 0.00 10 1017.8
20260901014510 76 80 0.0 0.0 0.00 0.00 0.00 10 1017.7
20260901013936 76 80 0.0 0.0 0.00 0.00 0.00 10 1017.7
20260901013402 76 80 0.0 0.0 0.00 0.00 0.00 10 1017.6
20260901011727 76 80 0.0 0.0 0.00 0.00 0.00 10 1017.5
20260901011153 76 80 0.0 0.0 0.00 0.00 0.00 10 1017.5
20260901010619 77 80 0.0 0.0 0.00 0.00 0.00 10 1017.4
20260901010045 77 80 0.0 0.0 0.00 0.00 0.00 10 1017.4
20260901005512 77 80 0.0 0.0 0.00 0.00 0.00 10 1017.3
20260901004407 77 80 0.0 0.0 0.00 0.00 0.00 10 1017.1
20260901003833 77 80 0.0 0.0 0.00 0.00 0.00 10 1017.0
20260901003259 77 80 0.0 0.0 0.00 0.43 0.00 10 1017.2
20260901002725 77 80 0.0 0.0 0.00 0.43 0.00 10 1017.1
20260901002151 77 80 0.0 0.0 0.00 0.43 0.00 10 1017.1
20260901001047 78 80 0.0 0.0 0.00 0.43 0.00 10 1016.9
20260901000513 78 80 0.0 0.0 0.00 0.43 0.00 10 1017.1
20260831235939 78 80 0.0 0.0 0.00 0.43 0.00 99 1017.2
20260831234305 79 80 0.0 0.0 0.00 0.43 0.00 98 1017.1
20260831233731 79 80 0.0 0.0 0.00 0.43 0.00 98 1017.2
20260831233157 79 80 0.0 0.0 0.00 0.43 0.00 97 1017.2
20260831231523 80 80 0.0 0.0 0.00 0.43 0.00 96 1017.2
20260831230949 80 80 0.0 0.0 0.00 0.43 0.00 97 1017.3
20260831225845 80 80 0.0 0.0 0.00 0.43 0.00 97 1017.3
20260831225311 81 80 0.0 0.0 0.00 0.43 0.00 97 1017.3
20260831224737 81 80 0.0 0.0 0.00 0.43 0.00 96 1017.4
20260831223632 81 80 0.0 0.0 0.00 0.43 0.00 97 1017.5
20260831223059 81 80 0.0 0.0 0.00 0.43 0.00 96 1017.5
20260831222524 81 80 0.0 0.0 0.00 0.43 0.00 96 1017.5
20260831221950 81 80 0.0 0.0 0.00 0.43 0.00 95 1017.7
20260831221416 81 80 0.0 0.0 0.00 0.43 0.00 95 1017.7
20260831220842 81 80 0.0 0.0 0.00 0.43 0.00 95 1017.8
20260831215738 81 81 0.0 0.0 0.00 0.43 0.00 95 1017.8
20260831215204 81 80 0.0 0.0 0.00 0.43 0.00 94 1017.7
20260831213530 81 80 0.0 0.0 0.00 0.43 0.00 94 1017.7
20260831212956 81 80 0.0 0.0 0.00 0.43 0.00 94 1017.7
20260831212422 81 73 0.0 0.0 0.00 0.43 0.00 94 1017.7
20260831211848 81 73 0.0 0.0 0.00 0.43 0.00 94 1017.8
20260831210744 82 73 0.0 0.0 0.00 0.43 0.00 93 1017.8
20260831205640 82 73 0.0 0.0 0.00 0.43 0.00 92 1017.7
20260831205106 82 73 0.0 0.0 0.00 0.43 0.00 93 1017.7
20260831204532 82 73 0.0 0.0 0.00 0.43 0.00 92 1017.6
20260831203428 82 73 0.0 0.0 0.00 0.43 0.00 93 1017.8
20260831202854 83 73 0.0 0.0 0.00 0.43 0.00 92 1017.7
20260831201220 83 72 0.0 0.0 0.00 0.43 0.00 91 1017.7
20260831200116 82 91 0.0 0.0 0.00 0.43 0.00 89 1017.7
20260831195011 82 92 0.0 0.0 0.00 0.43 0.00 90 1017.7
20260831193337 83 96 0.0 0.0 0.00 0.43 0.00 89 1017.8
20260831192803 83 96 0.0 0.0 0.00 0.43 0.00 88 1017.9
20260831191659 84 96 0.0 0.0 0.00 0.43 0.00 87 1018.0
20260831191125 84 96 0.0 0.0 0.00 0.43 0.00 88 1018.1
20260831190551 84 96 0.0 0.0 0.00 0.43 0.00 87 1018.2
20260831190017 84 96 0.0 0.0 0.00 0.43 0.00 86 1018.2
20260831185443 84 96 0.0 0.0 0.00 0.43 0.00 84 1018.2
20260831184909 84 87 0.0 0.0 0.00 0.43 0.00 85 1018.3
20260831184335 84 87 0.0 0.0 0.00 0.43 0.00 86 1018.3
20260831183801 84 87 0.0 0.0 0.00 0.43 0.00 86 1018.3
20260831182657 84 87 0.0 0.0 0.00 0.43 0.00 86 1018.3
20260831181023 85 87 0.0 0.0 0.00 0.43 0.00 85 1018.2
20260831175918 85 122 0.0 0.0 0.00 0.43 0.00 86 1018.2
20260831175344 84 103 0.0 0.0 0.00 0.43 0.00 85 1018.4
20260831174240 84 110 0.0 0.0 0.00 0.43 0.00 88 1018.5
20260831172606 83 213 0.0 0.0 0.00 0.43 0.00 89 1018.7
20260831172032 82 213 0.0 0.0 0.00 0.43 0.00 88 1018.7
20260831171458 82 235 0.0 0.0 0.00 0.43 0.00 89 1018.7
20260831170924 82 235 0.0 0.0 0.00 0.43 0.00 91 1018.7
20260831170350 82 228 0.0 0.0 0.00 0.43 0.00 91 1018.6
20260831165816 82 228 0.0 0.0 0.00 0.43 0.00 91 1018.7
20260831165242 82 230 0.0 0.0 0.00 0.43 0.00 91 1018.8
20260831164708 81 108 0.0 0.0 0.00 0.43 0.00 93 1018.9
20260831163034 81 107 0.0 0.0 0.00 0.43 0.00 95 1019.1
20260831162500 81 107 0.0 0.0 0.00 0.43 0.00 95 1019.2
20260831161925 80 108 0.0 0.0 0.00 0.43 0.00 96 1019.3
20260831161351 80 107 0.0 0.0 0.00 0.43 0.00 96 1019.2
20260831160248 81 107 0.0 0.0 0.00 0.43 0.00 95 1019.4
20260831155714 81 107 0.0 0.0 0.00 0.43 0.00 94 1019.3
20260831155139 80 107 0.0 0.0 0.00 0.43 0.00 94 1019.2
20260831154605 80 106 0.0 0.0 0.00 0.43 0.00 96 1019.0
20260831154031 80 89 0.0 0.0 0.00 0.43 0.00 97 1019.0
20260831153457 80 197 0.0 0.0 0.00 0.43 0.00 96 1018.9
20260831152923 79 193 1.0 0.0 0.00 0.43 0.00 97 1018.8
20260831152349 79 78 1.0 0.0 0.00 0.43 0.00 98 1018.9
20260831151815 78 45 1.0 0.0 0.00 0.43 0.00 99 1018.9
20260831150711 77 93 0.0 0.0 0.00 0.43 0.00 10 1019.0
20260831145607 76 124 1.0 0.0 0.00 0.43 0.00 10 1019.3
20260831144503 75 91 0.0 0.0 0.00 0.43 0.00 10 1019.3
20260831143929 75 83 0.0 0.0 0.00 0.43 0.00 10 1019.3
20260831142255 74 108 1.0 0.0 0.00 0.43 0.00 10 1018.9
20260831141721 74 82 0.0 0.0 0.00 0.43 0.00 10 1019.0
20260831141147 74 135 0.0 0.0 0.00 0.43 0.00 10 1019.0
20260831140613 73 73 0.0 0.0 0.00 0.43 0.00 10 1019.0
20260831140039 73 79 0.0 0.0 0.00 0.43 0.00 10 1019.0
20260831134935 72 258 0.0 0.0 0.00 0.43 0.00 10 1019.1
20260831134401 72 79 1.0 0.0 0.00 0.43 0.00 10 1019.1
20260831133827 72 74 0.0 0.0 0.00 0.43 0.00 10 1019.0
20260831132723 72 181 0.0 0.0 0.00 0.43 0.00 10 1019.1
20260831132148 71 116 0.0 0.0 0.00 0.43 0.00 10 1019.2
20260831131614 71 116 1.0 0.0 0.00 0.43 0.00 10 1019.0
20260831131040 71 97 0.0 0.0 0.00 0.43 0.00 10 1019.0
20260831130506 70 77 0.0 0.0 0.00 0.43 0.00 10 1019.0
20260831125932 70 77 0.0 0.0 0.00 0.43 0.00 10 1019.1
20260831125358 70 77 0.0 0.0 0.00 0.43 0.00 10 1019.2
20260831124824 70 77 0.0 0.0 0.00 0.43 0.00 10 1019.2
20260831123150 70 77 0.0 0.0 0.00 0.43 0.00 10 1019.1
20260831122616 70 78 0.0 0.0 0.00 0.43 0.00 10 1019.2
20260831121512 69 79 0.0 0.0 0.00 0.43 0.00 10 1018.9
20260831120938 69 83 0.0 0.0 0.00 0.43 0.00 10 1018.8
20260831120404 69 84 0.0 0.0 0.00 0.43 0.00 10 1018.9
20260831115300 69 83 0.0 0.0 0.00 0.43 0.00 10 1018.8
20260831114726 69 83 0.0 0.0 0.00 0.43 0.00 10 1018.8
20260831114152 69 83 0.0 0.0 0.00 0.43 0.00 10 1018.7
20260831113618 69 83 0.0 0.0 0.00 0.43 0.00 10 1018.7
20260831113044 69 83 0.0 0.0 0.00 0.43 0.00 10 1018.5
20260831111410 69 83 0.0 0.0 0.00 0.43 0.00 10 1018.3
20260831110836 69 83 0.0 0.0 0.00 0.43 0.00 10 1018.4
20260831105731 68 83 0.0 0.0 0.00 0.43 0.00 10 1018.4
20260831104057 68 83 0.0 0.0 0.00 0.43 0.00 10 1018.2
20260831103523 68 83 0.0 0.0 0.00 0.43 0.00 10 1018.2
20260831102949 68 83 0.0 0.0 0.00 0.43 0.00 10 1018.0
20260831102415 68 83 0.0 0.0 0.00 0.43 0.00 10 1018.1
20260831101841 68 83 0.0 0.0 0.00 0.43 0.00 10 1018.0
20260831100737 68 83 0.0 0.0 0.00 0.43 0.00 10 1018.1
20260831100203 68 83 0.0 0.0 0.00 0.43 0.00 10 1018.1
20260831095059 68 83 0.0 0.0 0.00 0.43 0.00 10 1018.0
20260831093425 68 83 0.0 0.0 0.00 0.43 0.00 10 1017.9
20260831092850 68 83 0.0 0.0 0.00 0.43 0.00 10 1018.0
20260831091746 68 83 0.0 0.0 0.00 0.43 0.00 10 1017.8
20260831091212 68 83 0.0 0.0 0.00 0.43 0.00 10 1017.9
20260831085538 69 83 0.0 0.0 0.00 0.43 0.00 10 1018.1
20260831085004 69 83 0.0 0.0 0.00 0.43 0.00 10 1017.9
20260831084430 69 83 0.0 0.0 0.00 0.43 0.00 10 1017.9
20260831082756 69 83 0.0 0.0 0.00 0.43 0.00 10 1017.9
20260831082222 69 83 0.0 0.0 0.00 0.43 0.00 10 1017.9
20260831081648 69 150 0.0 0.0 0.00 0.43 0.00 10 1017.8
20260831080544 69 151 0.0 0.0 0.00 0.43 0.00 10 1017.7
20260831080010 69 150 0.0 0.0 0.00 0.43 0.00 10 1017.6
20260831075436 69 151 0.0 0.0 0.00 0.43 0.00 10 1017.6
20260831074902 69 151 0.0 0.0 0.00 0.43 0.00 10 1017.5
20260831074328 69 151 0.0 0.0 0.00 0.43 0.00 10 1017.5
20260831073754 69 150 0.0 0.0 0.00 0.43 0.00 10 1017.6
20260831072650 69 151 0.0 0.0 0.00 0.43 0.00 10 1017.6
20260831072116 69 150 0.0 0.0 0.00 0.43 0.00 10 1017.6
20260831065911 69 150 0.0 0.0 0.00 0.43 0.00 10 1017.9
20260831064807 69 150 0.0 0.0 0.00 0.43 0.00 10 1017.9
20260831064233 69 150 0.0 0.0 0.00 0.43 0.00 10 1017.9